datetime,inflow volume
1970-12-02,3338.56171
1970-12-03,3469.12577
1970-12-04,3621.68114
1970-12-05,3448.37003
1970-12-06,3306.4826
1970-12-07,2999.87385
1970-12-08,2850.02784
1970-12-09,4162.95568
1970-12-10,3601.52368
1970-12-11,3304.72624
1970-12-12,3491.86862
1970-12-13,3707.53721
1970-12-14,3195.23607
1970-12-15,2896.12515
1970-12-16,3548.63483
1970-12-17,3952.8196
1970-12-18,3942.22358
1970-12-19,3896.47905
1970-12-20,3122.93816
1970-12-21,4330.84565
1970-12-22,3246.81988
1970-12-23,3899.22618
1970-12-24,4405.88391
1970-12-25,4408.26737
1970-12-26,4268.23751
1970-12-27,4479.95319
1970-12-28,4572.61848
1970-12-29,4479.65683
1970-12-30,4386.97217
1970-12-31,4609.69961
1971-01-01,4342.22931
1971-01-02,4566.79784
1971-01-03,4295.97269
1971-01-04,4899.92801
1971-01-05,4245.3535
1971-01-06,4440.87164
1971-01-07,4576.55491
1971-01-08,4506.57848
1971-01-09,4757.50936
1971-01-10,4675.36335
1971-01-11,4108.65864
1971-01-12,4655.96349
1971-01-13,4575.16125
1971-01-14,4511.55169
1971-01-15,4490.36157
1971-01-16,4819.51366
1971-01-17,4817.89773
1971-01-18,4129.50107
1971-01-19,4936.68808
1971-01-20,4331.27905
1971-01-21,5043.43233
1971-01-22,3930.10193
1971-01-23,4273.25429
1971-01-24,4638.84879
1971-01-25,4612.12423
1971-01-26,5046.03225
1971-01-27,5684.923
1971-01-28,4989.5164
1971-01-29,4318.42765
1971-01-30,6173.03267
1971-01-31,6282.20978
1971-02-01,5558.84427
1971-02-02,5461.31715
1971-02-03,5570.35237
1971-02-04,6435.94573
1971-02-05,6059.83487
1971-02-06,5842.9702
1971-02-07,6611.21029
1971-02-08,6144.59436
1971-02-09,5881.03241
1971-02-10,4300.46504
1971-02-11,5884.8473
1971-02-12,5342.02221
1971-02-13,6260.84291
1971-02-14,6011.87419
1971-02-15,6037.93437
1971-02-16,5859.30043
1971-02-17,5672.11664
1971-02-18,6174.63165
1971-02-19,6324.40309
1971-02-20,6470.13785
1971-02-21,6459.90719
1971-02-22,5830.99238
1971-02-23,5376.12184
1971-02-24,8318.60311
1971-02-25,3272.77061
1971-02-26,2308.70077
1971-02-27,6303.83959
1971-02-28,6403.68673
1971-03-01,6089.48186
1971-03-02,6276.04533
1971-03-03,5960.9693
1971-03-04,6206.00885
1971-03-05,5918.6157
1971-03-06,6998.25155
1971-03-07,5984.19179
1971-03-08,6141.83368
1971-03-09,6048.69286
1971-03-10,6285.85663
1971-03-11,5728.10079
1971-03-12,5526.25597
1971-03-13,6221.9139
1971-03-14,6475.29022
1971-03-15,7582.81089
1971-03-16,8232.4335
1971-03-17,7839.97256
1971-03-18,7831.54717
1971-03-19,6087.27805
1971-03-20,5779.36257
1971-03-21,4406.21659
1971-03-22,3781.90938
1971-03-23,5818.29836
1971-03-24,5564.7327
1971-03-25,5604.77305
1971-03-26,5568.00426
1971-03-27,5950.95897
1971-03-28,5512.77844
1971-03-29,5496.45112
1971-03-30,5979.23844
1971-03-31,4462.65883
1971-04-01,7256.9846
1971-04-02,4353.12678
1971-04-03,6860.9233
1971-04-04,5629.49477
1971-04-05,5856.39834
1971-04-06,5686.61641
1971-04-07,5810.50103
1971-04-08,6029.43489
1971-04-09,6553.34243
1971-04-10,7101.90244
1971-04-11,3750.76487
1971-04-12,6050.67972
1971-04-13,7350.34333
1971-04-14,7176.7562
1971-04-15,4960.28974
1971-04-16,7205.37368
1971-04-17,6095.79158
1971-04-18,5727.57538
1971-04-19,6363.49044
1971-04-20,6837.05336
1971-04-21,6250.21371
1971-04-22,5586.15767
1971-04-23,5149.10883
1971-04-24,6353.40699
1971-04-25,5887.7305
1971-04-26,6844.80808
1971-04-27,6710.83371
1971-04-28,5801.1362
1971-04-29,6176.69502
1971-04-30,4674.88297
1971-05-01,1954.87962
1971-05-02,2244.7222
1971-05-03,2134.63665
1971-05-04,2004.79908
1971-05-05,2039.64432
1971-05-06,2143.41167
1971-05-07,2048.63047
1971-05-08,2161.94667
1971-05-09,2027.06143
1971-05-10,2187.11656
1971-05-11,2129.84601
1971-05-12,2229.6377
1971-05-13,2204.12884
1971-05-14,2065.39531
1971-05-15,2164.74222
1971-05-16,1920.60845
1971-05-17,2096.77952
1971-05-18,2044.72842
1971-05-19,2053.12645
1971-05-20,2017.7788
1971-05-21,1850.85477
1971-05-22,2159.17606
1971-05-23,2059.66547
1971-05-24,2030.63105
1971-05-25,2204.91962
1971-05-26,1836.54144
1971-05-27,6520.46649
1971-05-28,4662.6117
1971-05-29,2525.22526
1971-05-30,2494.83447
1971-05-31,2198.61812
1971-06-01,2354.923
1971-06-02,2168.65832
1971-06-03,1993.59157
1971-06-04,2191.66484
1971-06-05,2209.12602
1971-06-06,2102.00236
1971-06-07,2213.79947
1971-06-08,2275.50208
1971-06-09,2245.05415
1971-06-10,2225.33929
1971-06-11,2392.15497
1971-06-12,2337.28629
1971-06-13,3154.73157
1971-06-14,1320.57928
1971-06-15,2223.36309
1971-06-16,2391.09036
1971-06-17,2341.93045
1971-06-18,2497.06563
1971-06-19,2422.85931
1971-06-20,2361.15331
1971-06-21,1537.77965
1971-06-22,2013.22362
1971-06-23,1476.87121
1971-06-24,1755.47807
1971-06-25,1711.29221
1971-06-26,1610.07235
1971-06-27,1555.56806
1971-06-28,1568.49803
1971-06-29,1502.27813
1971-06-30,1506.66213
1971-07-01,1801.68457
1971-07-02,2155.07425
1971-07-03,2602.99127
1971-07-04,2277.67078
1971-07-05,2166.83489
1971-07-06,2529.75199
1971-07-07,2329.54586
1971-07-08,2466.36299
1971-07-09,2415.43824
1971-07-10,2122.99902
1971-07-11,2282.48055
1971-07-12,2347.68716
1971-07-13,2309.32302
1971-07-14,2451.8252
1971-07-15,2463.78172
1971-07-16,2604.65538
1971-07-17,3730.89021
1971-07-18,3942.1875
1971-07-19,4699.51801
1971-07-20,5221.99267
1971-07-21,5286.61383
1971-07-22,5242.76876
1971-07-23,5316.27437
1971-07-24,5064.42875
1971-07-25,3823.64121
1971-07-26,4130.29668
1971-07-27,3991.27236
1971-07-28,4493.30821
1971-07-29,4801.73651
1971-07-30,3935.78892
1971-07-31,4093.65234
1971-08-01,4636.12878
1971-08-02,4595.54897
1971-08-03,3872.99312
1971-08-04,4296.66129
1971-08-05,4195.83694
1971-08-06,5457.52792
1971-08-07,5834.94722
1971-08-08,5143.77437
1971-08-09,5064.41519
1971-08-10,4631.71052
1971-08-11,4444.40228
1971-08-12,4653.67155
1971-08-13,5721.20852
1971-08-14,3423.07714
1971-08-15,3178.73224
1971-08-16,3559.62866
1971-08-17,4088.07916
1971-08-18,4212.88336
1971-08-19,4298.04139
1971-08-20,3024.37355
1971-08-21,2442.73615
1971-08-22,3065.9371
1971-08-23,3637.7644
1971-08-24,3333.88777
1971-08-25,3277.16974
1971-08-26,3420.7392
1971-08-27,4049.32762
1971-08-28,3731.01587
1971-08-29,3659.76054
1971-08-30,3846.92907
1971-08-31,3867.36352
1971-09-01,4065.03487
1971-09-02,3412.45618
1971-09-03,3237.62429
1971-09-04,3439.70711
1971-09-05,3232.92444
1971-09-06,4038.28319
1971-09-07,3096.3751
1971-09-08,3686.28027
1971-09-09,3363.77639
1971-09-10,3507.18338
1971-09-11,3502.66706
1971-09-12,3573.78293
1971-09-13,3582.12188
1971-09-14,3719.64892
1971-09-15,3531.58235
1971-09-16,3540.48642
1971-09-17,3353.85637
1971-09-18,3251.06478
1971-09-19,3627.99232
1971-09-20,3612.25965
1971-09-21,3458.83942
1971-09-22,3027.73203
1971-09-23,2970.25641
1971-09-24,2807.94155
1971-09-25,2830.28998
1971-09-26,3027.19065
1971-09-27,3037.56804
1971-09-28,3212.46675
1971-09-29,3019.9335
1971-09-30,2035.86987
1971-10-01,1992.95467
1971-10-02,2190.1891
1971-10-03,2335.41928
1971-10-04,3219.16556
1971-10-05,4412.59072
1971-10-06,4016.44079
1971-10-07,1933.46712
1971-10-08,1828.9073
1971-10-09,2287.41816
1971-10-10,1593.04409
1971-10-11,2229.8992
1971-10-12,2910.87745
1971-10-13,3719.78451
1971-10-14,3871.86992
1971-10-15,2378.44573
1971-10-16,2967.95915
1971-10-17,2394.88201
1971-10-18,1848.72615
1971-10-19,1826.73994
1971-10-20,542.17566
1971-10-21,1319.98874
1971-10-22,1947.84668
1971-10-23,2087.39096
1971-10-24,1727.56033
1971-10-25,2099.61914
1971-10-26,1526.81669
1971-10-27,1918.13444
1971-10-28,2039.25741
1971-10-29,2133.45897
1971-10-30,2165.06497
1971-10-31,1795.03805
1971-11-01,2159.58694
1971-11-02,1810.2688
1971-11-03,3386.20642
1971-11-04,4118.45445
1971-11-05,2941.08011
1971-11-06,3322.44383
1971-11-07,1400.57452
1971-11-08,3107.50186
1971-11-09,3037.42809
1971-11-10,2606.273
1971-11-11,2854.75747
1971-11-12,2691.27147
1971-11-13,2813.90649
1971-11-14,3223.35889
1971-11-15,2882.96504
1971-11-16,2182.75786
1971-11-17,2722.56198
1971-11-18,2789.47193
1971-11-19,2774.39324
1971-11-20,1976.87565
1971-11-21,1968.59444
1971-11-22,3103.30708
1971-11-23,2567.73236
1971-11-24,1877.66287
1971-11-25,1358.22697
1971-11-26,1584.85743
1971-11-27,1491.74203
1971-11-28,1054.49005
1971-11-29,2567.85487
1971-11-30,2562.60347
1971-12-01,2443.96517
1971-12-02,2615.38602
1971-12-03,3102.24682
1971-12-04,2343.15656
1971-12-05,1795.70438
1971-12-06,3142.61791
1971-12-07,2631.13322
1971-12-08,2652.09089
1971-12-09,3354.91348
1971-12-10,3910.26892
1971-12-11,2506.60503
1971-12-12,1879.35252
1971-12-13,3687.42575
1971-12-14,3389.79444
1971-12-15,3979.79282
1971-12-16,4388.48544
1971-12-17,3354.9481
1971-12-18,2978.37164
1971-12-19,1668.93595
1971-12-20,4855.86696
1971-12-21,4054.16064
1971-12-22,3078.28198
1971-12-23,3348.87324
1971-12-24,3042.08218
1971-12-25,2715.90021
1971-12-26,2151.84748
1971-12-27,3469.96473
1971-12-28,2791.65055
1971-12-29,2849.23441
1971-12-30,3442.58038
1971-12-31,3223.16834
1972-01-01,2557.05934
1972-01-02,1266.04
1972-01-03,3627.59887
1972-01-04,4179.63843
1972-01-05,5057.08323
1972-01-06,3109.60469
1972-01-07,2487.15457
1972-01-08,2481.09666
1972-01-09,1365.72516
1972-01-10,2939.37193
1972-01-11,3358.35187
1972-01-12,3903.02145
1972-01-13,3242.00236
1972-01-14,3344.91865
1972-01-15,2939.59057
1972-01-16,1192.0183
1972-01-17,3142.54286
1972-01-18,3924.26217
1972-01-19,4005.93145
1972-01-20,3098.46534
1972-01-21,3189.70501
1972-01-22,1892.54386
1972-01-23,1536.11324
1972-01-24,2577.4548
1972-01-25,3156.91673
1972-01-26,2458.978
1972-01-27,3084.41398
1972-01-28,3129.54449
1972-01-29,3049.70566
1972-01-30,1671.69119
1972-01-31,3051.26154
1972-02-01,3202.50339
1972-02-02,3202.45279
1972-02-03,2541.14556
1972-02-04,2755.53162
1972-02-05,2495.47731
1972-02-06,2409.44522
1972-02-07,2725.06917
1972-02-08,2210.86398
1972-02-09,3419.58766
1972-02-10,2610.87503
1972-02-11,3001.46896
1972-02-12,1666.55612
1972-02-13,2259.99435
1972-02-14,2391.07172
1972-02-15,2822.73429
1972-02-16,2067.72816
1972-02-17,3086.81197
1972-02-18,2555.80514
1972-02-19,3254.95036
1972-02-20,2645.59546
1972-02-21,1822.06466
1972-02-22,2608.86808
1972-02-23,2708.89342
1972-02-24,3240.61281
1972-02-25,3550.64639
1972-02-26,2666.90179
1972-02-27,1724.52374
1972-02-28,3707.86722
1972-02-29,3143.5312
1972-03-01,3127.11115
1972-03-02,2557.82396
1972-03-03,2120.1008
1972-03-04,2552.69216
1972-03-05,1843.78587
1972-03-06,2530.43453
1972-03-07,2865.84549
1972-03-08,160.64904
1972-03-09,37.65777
1972-03-10,1898.99959
1972-03-11,2624.86441
1972-03-12,1797.39924
1972-03-13,2787.39669
1972-03-14,2537.84252
1972-03-15,3311.61101
1972-03-16,2061.15331
1972-03-17,1937.3676
1972-03-18,2017.60496
1972-03-19,1265.19099
1972-03-20,2070.20338
1972-03-21,1290.94815
1972-03-22,1405.39288
1972-03-23,1345.27594
1972-03-24,1245.54623
1972-03-25,1273.16192
1972-03-26,1292.99518
1972-03-27,1990.35729
1972-03-28,2762.97932
1972-03-29,2653.54024
1972-03-30,2395.08418
1972-03-31,1938.00353
1972-04-01,2037.61993
1972-04-02,1554.76591
1972-04-03,2648.88252
1972-04-04,2362.88425
1972-04-05,2617.65738
1972-04-06,1679.95714
1972-04-07,2000.48881
1972-04-08,2010.98023
1972-04-09,2006.6058
1972-04-10,1967.33225
1972-04-11,1995.91644
1972-04-12,1977.42066
1972-04-13,2019.41083
1972-04-14,2335.82386
1972-04-15,2098.74847
1972-04-16,2081.74902
1972-04-17,2184.77596
1972-04-18,2180.38167
1972-04-19,2266.38712
1972-04-20,2233.21362
1972-04-21,2441.62166
1972-04-22,2120.16811
1972-04-23,2191.33555
1972-04-24,2121.33079
1972-04-25,2131.04621
1972-04-26,2258.47745
1972-04-27,2142.11075
1972-04-28,2188.44557
1972-04-29,2218.45211
1972-04-30,2278.19618
1972-05-01,2127.28508
1972-05-02,2244.67547
1972-05-03,2172.76908
1972-05-04,2191.57017
1972-05-05,2166.05235
1972-05-06,2179.1897
1972-05-07,2227.02229
1972-05-08,2108.39174
1972-05-09,2042.41397
1972-05-10,2035.9425
1972-05-11,2086.20577
1972-05-12,2305.9028
1972-05-13,2138.4835
1972-05-14,2211.4349
1972-05-15,2172.23665
1972-05-16,2065.23986
1972-05-17,2085.64477
1972-05-18,2442.25965
1972-05-19,1739.03865
1972-05-20,2138.34138
1972-05-21,2018.28387
1972-05-22,1973.21741
1972-05-23,2050.18079
1972-05-24,2087.267
1972-05-25,2078.48036
1972-05-26,2015.28772
1972-05-27,2069.19906
1972-05-28,1967.75064
1972-05-29,1913.09066
1972-05-30,2093.32225
1972-05-31,2000.33821
1972-06-01,2020.22655
1972-06-02,1873.91178
1972-06-03,1965.64562
1972-06-04,1994.79347
1972-06-05,2060.80078
1972-06-06,2048.54985
1972-06-07,2050.30645
1972-06-08,2007.33047
1972-06-09,2151.86588
1972-06-10,2194.73907
1972-06-11,2285.74073
1972-06-12,1890.74368
1972-06-13,1216.40262
1972-06-14,1875.29854
1972-06-15,1912.69164
1972-06-16,1983.57712
1972-06-17,1997.73986
1972-06-18,1994.05548
1972-06-19,2049.5101
1972-06-20,2149.88653
1972-06-21,2061.41868
1972-06-22,1938.15038
1972-06-23,2012.99591
1972-06-24,2088.56429
1972-06-25,1957.59576
1972-06-26,2126.86644
1972-06-27,2180.62064
1972-06-28,2055.21646
1972-06-29,2102.20743
1972-06-30,2123.04478
1972-07-01,2101.10335
1972-07-02,921.13412
1972-07-03,3239.99734
1972-07-04,2075.01073
1972-07-05,2186.3362
1972-07-06,2060.11243
1972-07-07,2171.91342
1972-07-08,2174.39542
1972-07-09,2071.97718
1972-07-10,2143.80658
1972-07-11,2165.16061
1972-07-12,2046.14121
1972-07-13,2128.3279
1972-07-14,2197.01575
1972-07-15,2061.378
1972-07-16,2229.20067
1972-07-17,2055.22178
1972-07-18,2197.79224
1972-07-19,1547.30719
1972-07-20,2699.40462
1972-07-21,2157.21099
1972-07-22,2150.07223
1972-07-23,2146.13919
1972-07-24,2153.25155
1972-07-25,2120.55091
1972-07-26,1628.22201
1972-07-27,2697.90007
1972-07-28,2163.3321
1972-07-29,2087.24835
1972-07-30,2023.57632
1972-07-31,2017.35182
1972-08-01,2077.11551
1972-08-02,2051.97395
1972-08-03,2141.01466
1972-08-04,2046.11869
1972-08-05,2090.2732
1972-08-06,1589.41963
1972-08-07,3365.47004
1972-08-08,2401.73578
1972-08-09,2142.74124
1972-08-10,2720.05141
1972-08-11,2240.32816
1972-08-12,2200.78149
1972-08-13,2186.65192
1972-08-14,2267.94882
1972-08-15,2435.30806
1972-08-16,2334.33287
1972-08-17,2455.41468
1972-08-18,2262.17394
1972-08-19,2279.05524
1972-08-20,2384.16322
1972-08-21,2378.97961
1972-08-22,2323.48697
1972-08-23,2326.21618
1972-08-24,2281.37066
1972-08-25,2286.32038
1972-08-26,2219.35862
1972-08-27,2144.36419
1972-08-28,2295.14866
1972-08-29,2334.26532
1972-08-30,2243.54137
1972-08-31,2285.59546
1972-09-01,2184.31592
1972-09-02,2320.01348
1972-09-03,2243.62224
1972-09-04,2305.88197
1972-09-05,2334.18711
1972-09-06,2272.19154
1972-09-07,2428.5245
1972-09-08,2289.29244
1972-09-09,2227.84164
1972-09-10,2257.86682
1972-09-11,2312.81637
1972-09-12,2178.22968
1972-09-13,2207.95753
1972-09-14,2246.22651
1972-09-15,2288.18448
1972-09-16,2469.37355
1972-09-17,2210.041
1972-09-18,2251.63191
1972-09-19,2063.19029
1972-09-20,2068.07779
1972-09-21,1835.50382
1972-09-22,1819.59501
1972-09-23,1843.41409
1972-09-24,1817.86468
1972-09-25,1810.08418
1972-09-26,1816.21279
1972-09-27,1801.65975
1972-09-28,1713.40316
1972-09-29,1660.93512
1972-09-30,1184.15886
1972-10-01,1245.24298
1972-10-02,1292.1124
1972-10-03,1378.5124
1972-10-04,1275.96694
1972-10-05,1209.58017
1972-10-06,1316.92562
1972-10-07,1135.97355
1972-10-08,1255.7157
1972-10-09,1113.85785
1972-10-10,1190.32066
1972-10-11,1210.43306
1972-10-12,1262.04298
1972-10-13,1371.11405
1972-10-14,1603.41818
1972-10-15,1561.05124
1972-10-16,1673.47438
1972-10-17,1439.86116
1972-10-18,1561.22975
1972-10-19,1597.68595
1972-10-20,1180.91901
1972-10-21,710.20165
1972-10-22,756.41653
1972-10-23,692.40992
1972-10-24,708.09917
1972-10-25,574.98843
1972-10-26,546.80331
1972-10-27,978.7438
1972-10-28,1186.01653
1972-10-29,1259.06777
1972-10-30,1176.09917
1972-10-31,2341.78512
1972-11-01,1692.93223
1972-11-02,1845.26281
1972-11-03,1359.4314
1972-11-04,1592.74711
1972-11-05,1652.48926
1972-11-06,2559.8281
1972-11-07,628.22479
1972-11-08,1703.58347
1972-11-09,1692.65455
1972-11-10,1814.57851
1972-11-11,1798.23471
1972-11-12,1712.64793
1972-11-13,2350.49256
1972-11-14,2019.13388
1972-11-15,2442.76364
1972-11-16,3284.42975
1972-11-17,2663.96033
1972-11-18,3722.9157
1972-11-19,1622.10248
1972-11-20,2353.96364
1972-11-21,3341.19669
1972-11-22,3174.64463
1972-11-23,990.24793
1972-11-24,3238.80992
1972-11-25,3090.1686
1972-11-26,1358.22149
1972-11-27,3060.71405
1972-11-28,3788.66777
1972-11-29,3065.03802
1972-11-30,3608.27107
1972-12-01,3049.54711
1972-12-02,3060.41653
1972-12-03,1227.19339
1972-12-04,2776.38347
1972-12-05,2253.02479
1972-12-06,4857.40165
1972-12-07,3659.66281
1972-12-08,3224.25124
1972-12-09,3669.06446
1972-12-10,1510.90909
1972-12-11,4494.62479
1972-12-12,3763.41818
1972-12-13,4713.0843
1972-12-14,3395.46446
1972-12-15,4629.83802
1972-12-16,3284.70744
1972-12-17,1373.27603
1972-12-18,3608.09256
1972-12-19,4160.86612
1972-12-20,3151.61653
1972-12-21,4125.83802
1972-12-22,4628.27107
1972-12-23,4891.67603
1972-12-24,2906.26116
1972-12-25,1199.18678
1972-12-26,4322.75702
1972-12-27,3531.41157
1972-12-28,4255.02149
1972-12-29,4905.89752
1972-12-30,3668.6876
1972-12-31,4024.20496
1973-01-01,2833.52727
1973-01-02,4982.69752
1973-01-03,5372.46942
1973-01-04,5093.67273
1973-01-05,5188.22479
1973-01-06,4832.84628
1973-01-07,3615.66942
1973-01-08,5487.92727
1973-01-09,5244.5157
1973-01-10,4757.33554
1973-01-11,5166.6843
1973-01-12,5581.17025
1973-01-13,5236.58182
1973-01-14,2131.49752
1973-01-15,5048.70744
1973-01-16,3937.38843
1973-01-17,3101.81157
1973-01-18,3402.24793
1973-01-19,4057.60661
1973-01-20,2041.30909
1973-01-21,1487.96033
1973-01-22,2159.0876
1973-01-23,2150.04298
1973-01-24,1698.42645
1973-01-25,1888.52231
1973-01-26,1870.55207
1973-01-27,1897.22975
1973-01-28,1457.61322
1973-01-29,1850.24132
1973-01-30,1712.44959
1973-01-31,1963.69587
1973-02-01,1462.47273
1973-02-02,1825.07107
1973-02-03,1889.35537
1973-02-04,888.31736
1973-02-05,1965.36198
1973-02-06,1714.01653
1973-02-07,1999.33884
1973-02-08,1949.69256
1973-02-09,2129.09752
1973-02-10,1642.55207
1973-02-11,1315.57686
1973-02-12,1959.70909
1973-02-13,285.04463
1973-02-14,945.24298
1973-02-15,1483.67603
1973-02-16,2388.17851
1973-02-17,1932.33719
1973-02-18,1097.49421
1973-02-19,1714.09587
1973-02-20,2143.33884
1973-02-21,1321.74545
1973-02-22,957.40165
1973-02-23,1017.1438
1973-02-24,1055.20661
1973-02-25,1006.67107
1973-02-26,1084.60165
1973-02-27,1072.87934
1973-02-28,1082.30083
1973-03-01,1072.42314
1973-03-02,1038.04959
1973-03-03,1063.27934
1973-03-04,1059.25289
1973-03-05,1064.50909
1973-03-06,1070.87603
1973-03-07,1050.86281
1973-03-08,1076.66777
1973-03-09,1052.84628
1973-03-10,1051.49752
1973-03-11,1026.26777
1973-03-12,1618.09587
1973-03-13,1048.93884
1973-03-14,1074.06942
1973-03-15,1074.34711
1973-03-16,1078.27438
1973-03-17,1063.73554
1973-03-18,1065.22314
1973-03-19,1784.03306
1973-03-20,1217.47438
1973-03-21,3297.79835
1973-03-22,1759.39835
1973-03-23,1036.50248
1973-03-24,1060.30413
1973-03-25,1068.85289
1973-03-26,1063.67603
1973-03-27,1062.7438
1973-03-28,1060.7405
1973-03-29,1060.97851
1973-03-30,1060.87934
1973-03-31,1111.2
1973-04-01,1074.06942
1973-04-02,1372.66116
1973-04-03,1513.46777
1973-04-04,920.35041
1973-04-05,1069.24959
1973-04-06,1182.64463
1973-04-07,1076.64793
1973-04-08,1129.4281
1973-04-09,2455.02149
1973-04-10,1431.07438
1973-04-11,1233.50083
1973-04-12,1558.03636
1973-04-13,1464.31736
1973-04-14,1459.37851
1973-04-15,1455.53058
1973-04-16,1835.92066
1973-04-17,1873.52727
1973-04-18,1688.6876
1973-04-19,2258.97521
1973-04-20,1891.39835
1973-04-21,1883.78182
1973-04-22,1935.60992
1973-04-23,1952.86612
1973-04-24,1705.84463
1973-04-25,1454.36033
1973-04-26,2193.0843
1973-04-27,1824.99174
1973-04-28,1700.39008
1973-04-29,1731.94711
1973-04-30,2016.65455
1973-05-01,1557.1438
1973-05-02,1564.89917
1973-05-03,1540.58182
1973-05-04,1640.54876
1973-05-05,1538.89587
1973-05-06,1591.55702
1973-05-07,2905.34876
1973-05-08,2375.96033
1973-05-09,3150.96198
1973-05-10,3868.04628
1973-05-11,2549.51405
1973-05-12,1226.4
1973-05-13,1185.91736
1973-05-14,1289.43471
1973-05-15,1501.56694
1973-05-16,2035.31901
1973-05-17,1703.86116
1973-05-18,2851.1405
1973-05-19,1987.33884
1973-05-20,1758.2281
1973-05-21,2021.3157
1973-05-22,2871.25289
1973-05-23,3278.14215
1973-05-24,2406.42645
1973-05-25,2862.38678
1973-05-26,2943.45124
1973-05-27,3001.24959
1973-05-28,2929.58678
1973-05-29,2870.43967
1973-05-30,2910.82314
1973-05-31,2969.17686
1973-06-01,3352.81983
1973-06-02,4034.61818
1973-06-03,4096.46281
1973-06-04,4157.2562
1973-06-05,4088.72727
1973-06-06,3177.30248
1973-06-07,2167.67603
1973-06-08,2660.37025
1973-06-09,2065.84463
1973-06-10,2342.8562
1973-06-11,2400.61488
1973-06-12,2574.38678
1973-06-13,2266.21488
1973-06-14,2604.41653
1973-06-15,2352.33719
1973-06-16,2391.49091
1973-06-17,2458.19504
1973-06-18,2074.45289
1973-06-19,1808.42975
1973-06-20,1852.30413
1973-06-21,1856.44959
1973-06-22,1959.98678
1973-06-23,1899.62975
1973-06-24,1895.98017
1973-06-25,1550.28099
1973-06-26,1084.04628
1973-06-27,1955.36529
1973-06-28,2024.21157
1973-06-29,1902.96198
1973-06-30,2023.55702
1973-07-01,1782.04959
1973-07-02,1743.03471
1973-07-03,1729.20992
1973-07-04,1660.97851
1973-07-05,1767.33223
1973-07-06,1937.53388
1973-07-07,1747.43802
1973-07-08,1745.79174
1973-07-09,1964.94545
1973-07-10,2173.82479
1973-07-11,2059.6562
1973-07-12,1926.62479
1973-07-13,2387.26612
1973-07-14,1336.76033
1973-07-15,1715.98017
1973-07-16,3440.33058
1973-07-17,3572.82645
1973-07-18,2500.78017
1973-07-19,2241.44132
1973-07-20,2736.61488
1973-07-21,3240.21818
1973-07-22,2281.86446
1973-07-23,3212.44959
1973-07-24,3516.01983
1973-07-25,3619.87438
1973-07-26,3568.83967
1973-07-27,5293.72562
1973-07-28,2596.76033
1973-07-29,2345.8314
1973-07-30,3744.4562
1973-07-31,4408.93884
1973-08-01,4502.69752
1973-08-02,3712.38347
1973-08-03,4848.11901
1973-08-04,4976.35041
1973-08-05,2757.69917
1973-08-06,4393.34876
1973-08-07,4490.79669
1973-08-08,4545.61983
1973-08-09,4569.24298
1973-08-10,4409.65289
1973-08-11,4358.12231
1973-08-12,2626.27438
1973-08-13,4691.56364
1973-08-14,4274.67769
1973-08-15,4757.03802
1973-08-16,4991.62314
1973-08-17,5202.50579
1973-08-18,5139.33223
1973-08-19,4647.15372
1973-08-20,4897.30909
1973-08-21,5157.87769
1973-08-22,5705.73223
1973-08-23,5015.44463
1973-08-24,5235.47107
1973-08-25,4599.86777
1973-08-26,4414.25455
1973-08-27,4955.42479
1973-08-28,2862.84298
1973-08-29,2246.83636
1973-08-30,3785.75207
1973-08-31,4309.84463
1973-09-01,4149.58017
1973-09-02,2596.38347
1973-09-03,2322.32727
1973-09-04,3612.27769
1973-09-05,4122.54545
1973-09-06,4711.69587
1973-09-07,4815.47107
1973-09-08,3618.88264
1973-09-09,4638.96198
1973-09-10,4776.39669
1973-09-11,4738.45289
1973-09-12,2583.27273
1973-09-13,3020.54876
1973-09-14,2995.61653
1973-09-15,3868.93884
1973-09-16,2495.36529
1973-09-17,2339.12727
1973-09-18,2166.54545
1973-09-19,2620.24463
1973-09-20,1999.83471
1973-09-21,2309.49421
1973-09-22,2335.59669
1973-09-23,2347.04132
1973-09-24,2268.35702
1973-09-25,2337.58017
1973-09-26,2252.98512
1973-09-27,2339.66281
1973-09-28,1863.72893
1973-09-29,1662.20826
1973-09-30,1662.44628
1973-10-01,1698.57446
1973-10-02,1702.235
1973-10-03,1402.09832
1973-10-04,1675.04447
1973-10-05,1711.44511
1973-10-06,1637.58672
1973-10-07,1698.71949
1973-10-08,1660.23187
1973-10-09,1851.6131
1973-10-10,2125.65656
1973-10-11,2053.16059
1973-10-12,2058.07351
1973-10-13,2077.5569
1973-10-14,2123.51546
1973-10-15,2102.03093
1973-10-16,2077.51186
1973-10-17,2103.8161
1973-10-18,2331.40512
1973-10-19,2784.69291
1973-10-20,2826.70826
1973-10-21,2881.99655
1973-10-22,2910.5317
1973-10-23,2962.3971
1973-10-24,2918.9939
1973-10-25,2955.50047
1973-10-26,3483.46333
1973-10-27,3640.62678
1973-10-28,3579.70477
1973-10-29,3091.28325
1973-10-30,3443.04841
1973-10-31,3585.02833
1973-11-01,791.06084
1973-11-02,8.18256
1973-11-03,-171.17699
1973-11-04,42.00105
1973-11-05,-162.1254
1973-11-06,-217.87806
1973-11-07,-92.63188
1973-11-08,-90.5068
1973-11-09,-79.60012
1973-11-10,-177.76179
1973-11-11,-74.58806
1973-11-12,-155.77776
1973-11-13,-64.82798
1973-11-14,-128.4095
1973-11-15,384.79457
1973-11-16,1374.96675
1973-11-17,2807.73066
1973-11-18,2835.38546
1973-11-19,2888.86315
1973-11-20,2840.23373
1973-11-21,2725.02316
1973-11-22,2608.48092
1973-11-23,2025.73242
1973-11-24,2786.42409
1973-11-25,2818.82425
1973-11-26,2827.18282
1973-11-27,331.73959
1973-11-28,2338.92982
1973-11-29,2776.23168
1973-11-30,2844.69218
1973-12-01,2800.32654